contact:dominique.lefevre@mio.osupytheas.fr, maurice.libes@osupytheas.fr, didier.mallarino@osupytheas.fr
Project:EMSO http://www.emso-fr.org/EMSO-France
Depth: 2436.0 m
Title:EMSO Ligure Ouest : Data MII capteur MICROCAT
DateTime_Computer,Latitude,Longitude,Temperature,Conductivity,Pressure,DateTime_Instrument
DateTime_Computer,Latitude,Longitude,degC,S m-1,dbar,DateTime_Instrument
2021-01-17T00:00:05Z,42.805,6.029,13.2982,4.59985,2470.147,2021-1-17T02:01:06Z
2021-01-17T00:03:08Z,42.805,6.029,13.2976,4.59983,2470.171,2021-1-17T02:04:10Z
2021-01-17T00:06:11Z,42.805,6.029,13.2979,4.59982,2470.133,2021-1-17T02:07:13Z
2021-01-17T00:09:14Z,42.805,6.029,13.2983,4.59983,2470.133,2021-1-17T02:10:16Z
2021-01-17T00:12:17Z,42.805,6.029,13.2981,4.59983,2470.11,2021-1-17T02:13:19Z
2021-01-17T00:15:21Z,42.805,6.029,13.2982,4.59983,2470.171,2021-1-17T02:16:22Z
2021-01-17T00:18:24Z,42.805,6.029,13.2982,4.59982,2470.18,2021-1-17T02:19:25Z
2021-01-17T00:21:27Z,42.805,6.029,13.2979,4.59983,2470.147,2021-1-17T02:22:28Z
2021-01-17T00:24:30Z,42.805,6.029,13.2981,4.59983,2470.147,2021-1-17T02:25:31Z
2021-01-17T00:27:33Z,42.805,6.029,13.2982,4.59982,2470.133,2021-1-17T02:28:35Z
2021-01-17T00:30:36Z,42.805,6.029,13.2983,4.59982,2470.147,2021-1-17T02:31:38Z
2021-01-17T00:33:39Z,42.805,6.029,13.2982,4.59982,2470.147,2021-1-17T02:34:41Z
2021-01-17T00:36:42Z,42.805,6.029,13.2980,4.59982,2470.11,2021-1-17T02:37:44Z
2021-01-17T00:39:46Z,42.805,6.029,13.2975,4.59982,2470.087,2021-1-17T02:40:47Z
2021-01-17T00:42:49Z,42.805,6.029,13.2983,4.59982,2470.11,2021-1-17T02:43:50Z
2021-01-17T00:45:52Z,42.805,6.029,13.2980,4.59982,2470.11,2021-1-17T02:46:53Z
2021-01-17T00:48:55Z,42.805,6.029,13.2984,4.59982,2470.063,2021-1-17T02:49:56Z
2021-01-17T00:51:58Z,42.805,6.029,13.2982,4.59982,2470.124,2021-1-17T02:53:00Z
2021-01-17T00:55:01Z,42.805,6.029,13.2978,4.59981,2470.087,2021-1-17T02:56:03Z
2021-01-17T00:58:04Z,42.805,6.029,13.2979,4.59982,2470.124,2021-1-17T02:59:06Z
2021-01-17T01:01:07Z,42.805,6.029,13.2980,4.59982,2470.087,2021-1-17T03:02:09Z
2021-01-17T01:04:11Z,42.805,6.029,13.2982,4.59982,2470.087,2021-1-17T03:05:12Z
2021-01-17T01:07:14Z,42.805,6.029,13.2980,4.59983,2470.11,2021-1-17T03:08:15Z
2021-01-17T01:10:17Z,42.805,6.029,13.2976,4.59981,2470.124,2021-1-17T03:11:18Z
2021-01-17T01:13:20Z,42.805,6.029,13.2982,4.59982,2470.147,2021-1-17T03:14:21Z
2021-01-17T01:16:23Z,42.805,6.029,13.2980,4.59983,2470.11,2021-1-17T03:17:25Z
2021-01-17T01:19:26Z,42.805,6.029,13.2982,4.59983,2470.11,2021-1-17T03:20:28Z
2021-01-17T01:22:29Z,42.805,6.029,13.2980,4.59986,2470.1,2021-1-17T03:23:31Z
2021-01-17T01:25:32Z,42.805,6.029,13.2979,4.59981,2470.124,2021-1-17T03:26:34Z
2021-01-17T01:28:36Z,42.805,6.029,13.2977,4.59982,2470.124,2021-1-17T03:29:37Z
2021-01-17T01:31:39Z,42.805,6.029,13.2980,4.59982,2470.124,2021-1-17T03:32:40Z
2021-01-17T01:34:42Z,42.805,6.029,13.2978,4.59981,2470.077,2021-1-17T03:35:43Z
2021-01-17T01:37:45Z,42.805,6.029,13.2980,4.59981,2470.04,2021-1-17T03:38:46Z
2021-01-17T01:40:48Z,42.805,6.029,13.2980,4.59983,2470.124,2021-1-17T03:41:50Z
2021-01-17T01:43:51Z,42.805,6.029,13.2984,4.59981,2470.087,2021-1-17T03:44:53Z
2021-01-17T01:46:54Z,42.805,6.029,13.2979,4.59981,2470.063,2021-1-17T03:47:56Z
2021-01-17T01:49:57Z,42.805,6.029,13.2983,4.59983,2470.087,2021-1-17T03:50:59Z
2021-01-17T01:53:01Z,42.805,6.029,13.2981,4.59981,2470.087,2021-1-17T03:54:02Z
2021-01-17T01:56:04Z,42.805,6.029,13.2977,4.59983,2470.11,2021-1-17T03:57:05Z
2021-01-17T01:59:07Z,42.805,6.029,13.2978,4.59982,2470.087,2021-1-17T04:00:08Z
2021-01-17T02:02:10Z,42.805,6.029,13.2981,4.59981,2470.1,2021-1-17T04:03:11Z
2021-01-17T02:05:13Z,42.805,6.029,13.2979,4.59981,2470.063,2021-1-17T04:06:15Z
2021-01-17T02:08:16Z,42.805,6.029,13.2982,4.59981,2470.077,2021-1-17T04:09:18Z
2021-01-17T02:11:19Z,42.805,6.029,13.2976,4.59981,2470.11,2021-1-17T04:12:21Z
2021-01-17T02:14:22Z,42.805,6.029,13.2977,4.59983,2470.1,2021-1-17T04:15:24Z
2021-01-17T02:17:25Z,42.805,6.029,13.2982,4.59983,2470.087,2021-1-17T04:18:27Z
2021-01-17T02:20:29Z,42.805,6.029,13.2979,4.59982,2470.077,2021-1-17T04:21:30Z
2021-01-17T02:23:32Z,42.805,6.029,13.2975,4.59981,2470.11,2021-1-17T04:24:33Z
2021-01-17T02:26:35Z,42.805,6.029,13.2980,4.59981,2470.087,2021-1-17T04:27:36Z
2021-01-17T02:29:38Z,42.805,6.029,13.2980,4.59981,2470.1,2021-1-17T04:30:39Z
2021-01-17T02:32:41Z,42.805,6.029,13.2979,4.59982,2470.087,2021-1-17T04:33:43Z
2021-01-17T02:35:44Z,42.805,6.029,13.2982,4.59981,2470.04,2021-1-17T04:36:46Z
2021-01-17T02:38:47Z,42.805,6.029,13.2978,4.59981,2470.063,2021-1-17T04:39:49Z
2021-01-17T02:41:50Z,42.805,6.029,13.2977,4.59982,2470.1,2021-1-17T04:42:52Z
2021-01-17T02:44:54Z,42.805,6.029,13.2980,4.59981,2470.077,2021-1-17T04:45:55Z
2021-01-17T02:47:57Z,42.805,6.029,13.2980,4.59981,2470.04,2021-1-17T04:48:58Z
2021-01-17T02:51:00Z,42.805,6.029,13.2977,4.59981,2470.063,2021-1-17T04:52:01Z
2021-01-17T02:54:03Z,42.805,6.029,13.2982,4.59982,2470.04,2021-1-17T04:55:04Z
2021-01-17T02:57:06Z,42.805,6.029,13.2978,4.59981,2470.04,2021-1-17T04:58:08Z
2021-01-17T03:00:09Z,42.805,6.029,13.2978,4.59981,2470.077,2021-1-17T05:01:11Z
2021-01-17T03:03:12Z,42.805,6.029,13.2979,4.59981,2470.03,2021-1-17T05:04:14Z
2021-01-17T03:06:15Z,42.805,6.029,13.2978,4.59981,2470.063,2021-1-17T05:07:17Z
2021-01-17T03:09:19Z,42.805,6.029,13.2978,4.59981,2470.053,2021-1-17T05:10:20Z
2021-01-17T03:12:22Z,42.805,6.029,13.2982,4.59981,2470.017,2021-1-17T05:13:23Z
2021-01-17T03:15:25Z,42.805,6.029,13.2979,4.59981,2470.053,2021-1-17T05:16:26Z
2021-01-17T03:18:28Z,42.805,6.029,13.2982,4.59981,2470.053,2021-1-17T05:19:29Z
2021-01-17T03:21:31Z,42.805,6.029,13.2981,4.59981,2470.053,2021-1-17T05:22:33Z
2021-01-17T03:24:34Z,42.805,6.029,13.2976,4.59981,2470.1,2021-1-17T05:25:36Z
2021-01-17T03:27:37Z,42.805,6.029,13.2979,4.59981,2470.04,2021-1-17T05:28:39Z
2021-01-17T03:30:40Z,42.805,6.029,13.2981,4.59981,2470.077,2021-1-17T05:31:42Z
2021-01-17T03:33:44Z,42.805,6.029,13.2978,4.59981,2470.04,2021-1-17T05:34:45Z
2021-01-17T03:36:47Z,42.805,6.029,13.2984,4.59981,2470.053,2021-1-17T05:37:48Z
2021-01-17T03:39:50Z,42.805,6.029,13.2980,4.59981,2470.017,2021-1-17T05:40:51Z
2021-01-17T03:42:53Z,42.805,6.029,13.2979,4.59983,2470.04,2021-1-17T05:43:54Z
2021-01-17T03:45:56Z,42.805,6.029,13.2978,4.59981,2470.04,2021-1-17T05:46:58Z
2021-01-17T03:48:59Z,42.805,6.029,13.2980,4.59981,2470.053,2021-1-17T05:50:01Z
2021-01-17T03:52:02Z,42.805,6.029,13.2981,4.59981,2470.087,2021-1-17T05:53:04Z
2021-01-17T03:55:05Z,42.805,6.029,13.2979,4.59981,2470.04,2021-1-17T05:56:07Z
2021-01-17T03:58:09Z,42.805,6.029,13.2978,4.59981,2470.04,2021-1-17T05:59:10Z
2021-01-17T04:01:12Z,42.805,6.029,13.2980,4.59981,2470.053,2021-1-17T06:02:13Z
2021-01-17T04:04:15Z,42.805,6.029,13.2977,4.59981,2470.017,2021-1-17T06:05:16Z
2021-01-17T04:07:18Z,42.805,6.029,13.2980,4.59981,2470.017,2021-1-17T06:08:19Z
2021-01-17T04:10:21Z,42.805,6.029,13.2980,4.59981,2470.063,2021-1-17T06:11:23Z
2021-01-17T04:13:24Z,42.805,6.029,13.2979,4.59981,2470.063,2021-1-17T06:14:26Z
2021-01-17T04:16:27Z,42.805,6.029,13.2982,4.59981,2470.053,2021-1-17T06:17:29Z
2021-01-17T04:19:30Z,42.805,6.029,13.2978,4.59982,2470.04,2021-1-17T06:20:32Z
2021-01-17T04:22:34Z,42.805,6.029,13.2982,4.59981,2470.087,2021-1-17T06:23:35Z
2021-01-17T04:25:37Z,42.805,6.029,13.2979,4.59981,2470.077,2021-1-17T06:26:38Z
2021-01-17T04:28:40Z,42.805,6.029,13.2980,4.59981,2470.053,2021-1-17T06:29:41Z
2021-01-17T04:31:43Z,42.805,6.029,13.2980,4.59981,2470.017,2021-1-17T06:32:44Z
2021-01-17T04:34:46Z,42.805,6.029,13.2976,4.59983,2470.03,2021-1-17T06:35:48Z
2021-01-17T04:37:49Z,42.805,6.029,13.2978,4.59981,2470.053,2021-1-17T06:38:51Z
2021-01-17T04:40:52Z,42.805,6.029,13.2980,4.59981,2470.03,2021-1-17T06:41:54Z
2021-01-17T04:43:55Z,42.805,6.029,13.2981,4.59981,2470.017,2021-1-17T06:44:57Z
2021-01-17T04:46:59Z,42.805,6.029,13.2983,4.59981,2470.053,2021-1-17T06:48:00Z
2021-01-17T04:50:02Z,42.805,6.029,13.2979,4.59981,2470.04,2021-1-17T06:51:03Z
2021-01-17T04:53:05Z,42.805,6.029,13.2982,4.59981,2470.017,2021-1-17T06:54:06Z
2021-01-17T04:56:08Z,42.805,6.029,13.2979,4.59983,2470.04,2021-1-17T06:57:09Z
2021-01-17T04:59:11Z,42.805,6.029,13.2981,4.59981,2470.053,2021-1-17T07:00:13Z
2021-01-17T05:02:14Z,42.805,6.029,13.2979,4.59981,2470.063,2021-1-17T07:03:16Z
2021-01-17T05:05:17Z,42.805,6.029,13.2977,4.59981,2470.04,2021-1-17T07:06:19Z
2021-01-17T05:08:20Z,42.805,6.029,13.2978,4.59981,2470.053,2021-1-17T07:09:22Z
2021-01-17T05:11:23Z,42.805,6.029,13.2978,4.59982,2470.11,2021-1-17T07:12:25Z
2021-01-17T05:14:27Z,42.805,6.029,13.2980,4.59981,2470.04,2021-1-17T07:15:28Z
2021-01-17T05:17:30Z,42.805,6.029,13.2983,4.59981,2470.04,2021-1-17T07:18:31Z
2021-01-17T05:20:33Z,42.805,6.029,13.2982,4.59982,2470.04,2021-1-17T07:21:34Z
2021-01-17T05:23:36Z,42.805,6.029,13.2982,4.59981,2470.04,2021-1-17T07:24:38Z
2021-01-17T05:26:39Z,42.805,6.029,13.2981,4.59981,2470.04,2021-1-17T07:27:41Z
2021-01-17T05:29:42Z,42.805,6.029,13.2979,4.59983,2470.053,2021-1-17T07:30:44Z
2021-01-17T05:32:45Z,42.805,6.029,13.2980,4.59982,2470.063,2021-1-17T07:33:47Z
2021-01-17T05:35:48Z,42.805,6.029,13.2976,4.59981,2470.017,2021-1-17T07:36:50Z
2021-01-17T05:38:52Z,42.805,6.029,13.2980,4.59981,2470.053,2021-1-17T07:39:53Z
2021-01-17T05:41:55Z,42.805,6.029,13.2981,4.59981,2470.063,2021-1-17T07:42:56Z
2021-01-17T05:44:58Z,42.805,6.029,13.2978,4.59984,2470.087,2021-1-17T07:45:59Z
2021-01-17T05:48:01Z,42.805,6.029,13.2984,4.59982,2470.077,2021-1-17T07:49:03Z
2021-01-17T05:51:04Z,42.805,6.029,13.2979,4.59982,2470.063,2021-1-17T07:52:06Z
2021-01-17T05:54:07Z,42.805,6.029,13.2979,4.59983,2470.04,2021-1-17T07:55:09Z
2021-01-17T05:57:10Z,42.805,6.029,13.2982,4.59981,2470.063,2021-1-17T07:58:12Z
2021-01-17T06:00:13Z,42.805,6.029,13.2983,4.59981,2470.087,2021-1-17T08:01:15Z
2021-01-17T06:03:17Z,42.805,6.029,13.2982,4.59981,2470.063,2021-1-17T08:04:18Z
2021-01-17T06:06:20Z,42.805,6.029,13.2979,4.59983,2470.087,2021-1-17T08:07:21Z
2021-01-17T06:09:23Z,42.805,6.029,13.2978,4.59981,2470.11,2021-1-17T08:10:24Z
2021-01-17T06:12:26Z,42.805,6.029,13.2978,4.59983,2470.1,2021-1-17T08:13:27Z
2021-01-17T06:15:29Z,42.805,6.029,13.2983,4.59981,2470.04,2021-1-17T08:16:31Z
2021-01-17T06:18:32Z,42.805,6.029,13.2979,4.59981,2470.087,2021-1-17T08:19:34Z
2021-01-17T06:21:35Z,42.805,6.029,13.2977,4.59983,2470.1,2021-1-17T08:22:37Z
2021-01-17T06:24:38Z,42.805,6.029,13.2979,4.59983,2470.11,2021-1-17T08:25:40Z
2021-01-17T06:27:42Z,42.805,6.029,13.2979,4.59982,2470.11,2021-1-17T08:28:43Z
2021-01-17T06:30:45Z,42.805,6.029,13.2983,4.59981,2470.087,2021-1-17T08:31:46Z
2021-01-17T06:33:48Z,42.805,6.029,13.2981,4.59981,2470.11,2021-1-17T08:34:49Z
2021-01-17T06:36:51Z,42.805,6.029,13.2982,4.59981,2470.124,2021-1-17T08:37:52Z
2021-01-17T06:39:54Z,42.805,6.029,13.2979,4.59981,2470.124,2021-1-17T08:40:56Z
2021-01-17T06:42:57Z,42.805,6.029,13.2982,4.59982,2470.156,2021-1-17T08:43:59Z
2021-01-17T06:46:00Z,42.805,6.029,13.2982,4.59981,2470.147,2021-1-17T08:47:02Z
2021-01-17T06:49:03Z,42.805,6.029,13.2982,4.59982,2470.147,2021-1-17T08:50:05Z
2021-01-17T06:52:07Z,42.805,6.029,13.2980,4.59984,2470.124,2021-1-17T08:53:08Z
2021-01-17T06:55:10Z,42.805,6.029,13.2982,4.59981,2470.147,2021-1-17T08:56:11Z
2021-01-17T06:58:13Z,42.805,6.029,13.2978,4.59982,2470.11,2021-1-17T08:59:14Z
2021-01-17T07:01:16Z,42.805,6.029,13.2982,4.59982,2470.11,2021-1-17T09:02:17Z
2021-01-17T07:04:19Z,42.805,6.029,13.2982,4.59982,2470.156,2021-1-17T09:05:21Z
2021-01-17T07:07:22Z,42.805,6.029,13.2982,4.59981,2470.147,2021-1-17T09:08:24Z
2021-01-17T07:10:25Z,42.805,6.029,13.2982,4.59982,2470.133,2021-1-17T09:11:27Z
2021-01-17T07:13:28Z,42.805,6.029,13.2980,4.59983,2470.156,2021-1-17T09:14:30Z
2021-01-17T07:16:32Z,42.805,6.029,13.2981,4.59985,2470.156,2021-1-17T09:17:33Z
2021-01-17T07:19:35Z,42.805,6.029,13.2982,4.59982,2470.133,2021-1-17T09:20:36Z
2021-01-17T07:22:38Z,42.805,6.029,13.2979,4.59981,2470.18,2021-1-17T09:23:39Z
2021-01-17T07:25:41Z,42.805,6.029,13.2979,4.59988,2470.171,2021-1-17T09:26:42Z
2021-01-17T07:28:44Z,42.805,6.029,13.2976,4.59984,2470.217,2021-1-17T09:29:46Z
2021-01-17T07:31:47Z,42.805,6.029,13.2979,4.59987,2470.171,2021-1-17T09:32:49Z
2021-01-17T07:34:50Z,42.805,6.029,13.2981,4.59986,2470.18,2021-1-17T09:35:52Z
2021-01-17T07:37:53Z,42.805,6.029,13.2980,4.59982,2470.203,2021-1-17T09:38:55Z
2021-01-17T07:40:57Z,42.805,6.029,13.2979,4.59982,2470.217,2021-1-17T09:41:58Z
2021-01-17T07:44:00Z,42.805,6.029,13.2979,4.59982,2470.203,2021-1-17T09:45:01Z
2021-01-17T07:47:03Z,42.805,6.029,13.2984,4.59982,2470.18,2021-1-17T09:48:04Z
2021-01-17T07:50:06Z,42.805,6.029,13.2979,4.59983,2470.227,2021-1-17T09:51:07Z
2021-01-17T07:53:09Z,42.805,6.029,13.2982,4.59982,2470.217,2021-1-17T09:54:11Z
2021-01-17T07:56:12Z,42.805,6.029,13.2976,4.59984,2470.25,2021-1-17T09:57:14Z
2021-01-17T07:59:15Z,42.805,6.029,13.2986,4.59981,2470.227,2021-1-17T10:00:17Z
2021-01-17T08:02:18Z,42.805,6.029,13.2979,4.59982,2470.227,2021-1-17T10:03:20Z
2021-01-17T08:05:21Z,42.805,6.029,13.2982,4.59983,2470.227,2021-1-17T10:06:23Z
2021-01-17T08:08:25Z,42.805,6.029,13.2979,4.59983,2470.203,2021-1-17T10:09:26Z
2021-01-17T08:11:28Z,42.805,6.029,13.2983,4.59981,2470.227,2021-1-17T10:12:29Z
2021-01-17T08:14:31Z,42.805,6.029,13.2982,4.59982,2470.25,2021-1-17T10:15:32Z
2021-01-17T08:17:34Z,42.805,6.029,13.2979,4.59983,2470.227,2021-1-17T10:18:36Z
2021-01-17T08:20:37Z,42.805,6.029,13.2982,4.59982,2470.227,2021-1-17T10:21:39Z
2021-01-17T08:23:40Z,42.805,6.029,13.2982,4.59983,2470.264,2021-1-17T10:24:42Z
2021-01-17T08:26:43Z,42.805,6.029,13.2979,4.59982,2470.25,2021-1-17T10:27:45Z
2021-01-17T08:29:47Z,42.805,6.029,13.2982,4.59981,2470.287,2021-1-17T10:30:48Z
2021-01-17T08:32:50Z,42.805,6.029,13.2978,4.59981,2470.273,2021-1-17T10:33:51Z
2021-01-17T08:35:53Z,42.805,6.029,13.2980,4.59983,2470.24,2021-1-17T10:36:54Z
2021-01-17T08:38:56Z,42.805,6.029,13.2980,4.59981,2470.273,2021-1-17T10:39:57Z
2021-01-17T08:41:59Z,42.805,6.029,13.2979,4.59983,2470.227,2021-1-17T10:43:01Z
2021-01-17T08:45:02Z,42.805,6.029,13.2983,4.59982,2470.273,2021-1-17T10:46:04Z
2021-01-17T08:48:05Z,42.805,6.029,13.2981,4.59983,2470.273,2021-1-17T10:49:07Z
2021-01-17T08:51:08Z,42.805,6.029,13.2979,4.59984,2470.273,2021-1-17T10:52:10Z
2021-01-17T08:54:12Z,42.805,6.029,13.2979,4.59982,2470.25,2021-1-17T10:55:13Z
2021-01-17T08:57:15Z,42.805,6.029,13.2975,4.59983,2470.25,2021-1-17T10:58:16Z
2021-01-17T09:00:18Z,42.805,6.029,13.2981,4.59983,2470.25,2021-1-17T11:01:19Z
2021-01-17T09:03:21Z,42.805,6.029,13.2979,4.59982,2470.25,2021-1-17T11:04:22Z
2021-01-17T09:06:24Z,42.805,6.029,13.2979,4.59983,2470.31,2021-1-17T11:07:26Z
2021-01-17T09:09:27Z,42.805,6.029,13.2977,4.59982,2470.31,2021-1-17T11:10:29Z
2021-01-17T09:12:30Z,42.805,6.029,13.2977,4.59982,2470.287,2021-1-17T11:13:32Z
2021-01-17T09:15:33Z,42.805,6.029,13.2976,4.59982,2470.273,2021-1-17T11:16:35Z
2021-01-17T09:18:37Z,42.805,6.029,13.2979,4.59982,2470.297,2021-1-17T11:19:38Z
2021-01-17T09:21:40Z,42.805,6.029,13.2977,4.59984,2470.32,2021-1-17T11:22:41Z
2021-01-17T09:24:43Z,42.805,6.029,13.2976,4.59983,2470.32,2021-1-17T11:25:44Z
2021-01-17T09:27:46Z,42.805,6.029,13.2978,4.59982,2470.297,2021-1-17T11:28:47Z
2021-01-17T09:30:49Z,42.805,6.029,13.2982,4.59984,2470.32,2021-1-17T11:31:51Z
2021-01-17T09:33:52Z,42.805,6.029,13.2982,4.59981,2470.297,2021-1-17T11:34:54Z
2021-01-17T09:36:55Z,42.805,6.029,13.2981,4.59981,2470.297,2021-1-17T11:37:57Z
2021-01-17T09:39:58Z,42.805,6.029,13.2979,4.59982,2470.31,2021-1-17T11:41:00Z
2021-01-17T09:43:02Z,42.805,6.029,13.2978,4.59982,2470.297,2021-1-17T11:44:03Z
2021-01-17T09:46:05Z,42.805,6.029,13.2978,4.59982,2470.343,2021-1-17T11:47:06Z
2021-01-17T09:49:08Z,42.805,6.029,13.2979,4.59984,2470.273,2021-1-17T11:50:09Z
2021-01-17T09:52:11Z,42.805,6.029,13.2978,4.59981,2470.31,2021-1-17T11:53:12Z
2021-01-17T09:55:14Z,42.805,6.029,13.2981,4.59981,2470.297,2021-1-17T11:56:16Z
2021-01-17T09:58:17Z,42.805,6.029,13.2980,4.59981,2470.297,2021-1-17T11:59:19Z
2021-01-17T10:01:20Z,42.805,6.029,13.2978,4.59983,2470.31,2021-1-17T12:02:22Z
2021-01-17T10:04:23Z,42.805,6.029,13.2976,4.59982,2470.297,2021-1-17T12:05:25Z
2021-01-17T10:07:27Z,42.805,6.029,13.2978,4.59982,2470.273,2021-1-17T12:08:28Z
2021-01-17T10:10:30Z,42.805,6.029,13.2983,4.59981,2470.31,2021-1-17T12:11:31Z
2021-01-17T10:13:33Z,42.805,6.029,13.2974,4.59982,2470.32,2021-1-17T12:14:34Z
2021-01-17T10:16:36Z,42.805,6.029,13.2976,4.59981,2470.32,2021-1-17T12:17:38Z
2021-01-17T10:19:39Z,42.805,6.029,13.2977,4.59981,2470.297,2021-1-17T12:20:41Z
2021-01-17T10:22:42Z,42.805,6.029,13.2982,4.59983,2470.297,2021-1-17T12:23:44Z
2021-01-17T10:25:45Z,42.805,6.029,13.2979,4.59983,2470.334,2021-1-17T12:26:47Z
2021-01-17T10:28:48Z,42.805,6.029,13.2979,4.59981,2470.32,2021-1-17T12:29:50Z
2021-01-17T10:31:52Z,42.805,6.029,13.2979,4.59982,2470.32,2021-1-17T12:32:53Z
2021-01-17T10:34:55Z,42.805,6.029,13.2982,4.59982,2470.31,2021-1-17T12:35:56Z
2021-01-17T10:37:58Z,42.805,6.029,13.2975,4.59982,2470.31,2021-1-17T12:38:59Z
2021-01-17T10:41:01Z,42.805,6.029,13.2976,4.59984,2470.273,2021-1-17T12:42:03Z
2021-01-17T10:44:04Z,42.805,6.029,13.2980,4.59981,2470.297,2021-1-17T12:45:06Z
2021-01-17T10:47:07Z,42.805,6.029,13.2977,4.59981,2470.297,2021-1-17T12:48:09Z
2021-01-17T10:50:10Z,42.805,6.029,13.2979,4.59981,2470.31,2021-1-17T12:51:12Z
2021-01-17T10:53:14Z,42.805,6.029,13.2978,4.59982,2470.273,2021-1-17T12:54:15Z
2021-01-17T10:56:17Z,42.805,6.029,13.2979,4.59983,2470.31,2021-1-17T12:57:18Z
2021-01-17T10:59:20Z,42.805,6.029,13.2979,4.59982,2470.32,2021-1-17T13:00:21Z
2021-01-17T11:02:23Z,42.805,6.029,13.2976,4.59982,2470.31,2021-1-17T13:03:24Z
2021-01-17T11:05:26Z,42.805,6.029,13.2978,4.59983,2470.297,2021-1-17T13:06:28Z
2021-01-17T11:08:29Z,42.805,6.029,13.2978,4.59981,2470.25,2021-1-17T13:09:31Z
2021-01-17T11:11:32Z,42.805,6.029,13.2978,4.59981,2470.297,2021-1-17T13:12:34Z
2021-01-17T11:14:35Z,42.805,6.029,13.2979,4.59981,2470.297,2021-1-17T13:15:37Z
2021-01-17T11:17:39Z,42.805,6.029,13.2980,4.59981,2470.273,2021-1-17T13:18:40Z
2021-01-17T11:20:42Z,42.805,6.029,13.2982,4.59983,2470.31,2021-1-17T13:21:43Z
2021-01-17T11:23:45Z,42.805,6.029,13.2978,4.59983,2470.287,2021-1-17T13:24:46Z
2021-01-17T11:26:48Z,42.805,6.029,13.2982,4.59982,2470.25,2021-1-17T13:27:49Z
2021-01-17T11:29:51Z,42.805,6.029,13.2979,4.59981,2470.25,2021-1-17T13:30:53Z
2021-01-17T11:32:54Z,42.805,6.029,13.2981,4.59981,2470.273,2021-1-17T13:33:56Z
2021-01-17T11:35:57Z,42.805,6.029,13.2981,4.59982,2470.273,2021-1-17T13:36:59Z
2021-01-17T11:39:00Z,42.805,6.029,13.2975,4.59983,2470.264,2021-1-17T13:40:02Z
2021-01-17T11:42:04Z,42.805,6.029,13.2977,4.59981,2470.25,2021-1-17T13:43:05Z
2021-01-17T11:45:07Z,42.805,6.029,13.2976,4.59981,2470.25,2021-1-17T13:46:08Z
2021-01-17T11:48:10Z,42.805,6.029,13.2978,4.59982,2470.24,2021-1-17T13:49:11Z
2021-01-17T11:51:13Z,42.805,6.029,13.2979,4.59981,2470.25,2021-1-17T13:52:14Z
2021-01-17T11:54:16Z,42.805,6.029,13.2980,4.59982,2470.287,2021-1-17T13:55:18Z
2021-01-17T11:57:19Z,42.805,6.029,13.2982,4.59981,2470.25,2021-1-17T13:58:21Z
2021-01-17T12:00:22Z,42.805,6.029,13.2978,4.59982,2470.25,2021-1-17T14:01:24Z
2021-01-17T12:03:25Z,42.805,6.029,13.2978,4.59982,2470.25,2021-1-17T14:04:27Z
2021-01-17T12:06:29Z,42.805,6.029,13.2977,4.59983,2470.25,2021-1-17T14:07:30Z
2021-01-17T12:09:32Z,42.805,6.029,13.2979,4.59982,2470.25,2021-1-17T14:10:33Z
2021-01-17T12:12:35Z,42.805,6.029,13.2975,4.59983,2470.25,2021-1-17T14:13:36Z
2021-01-17T12:15:38Z,42.805,6.029,13.2982,4.59982,2470.25,2021-1-17T14:16:39Z
2021-01-17T12:18:41Z,42.805,6.029,13.2981,4.59982,2470.25,2021-1-17T14:19:43Z
2021-01-17T12:21:44Z,42.805,6.029,13.2984,4.59982,2470.264,2021-1-17T14:22:46Z
2021-01-17T12:24:47Z,42.805,6.029,13.2979,4.59981,2470.227,2021-1-17T14:25:49Z
2021-01-17T12:27:50Z,42.805,6.029,13.2981,4.59982,2470.227,2021-1-17T14:28:52Z
2021-01-17T12:30:54Z,42.805,6.029,13.2976,4.59983,2470.25,2021-1-17T14:31:55Z
2021-01-17T12:33:57Z,42.805,6.029,13.2980,4.59982,2470.227,2021-1-17T14:34:58Z
2021-01-17T12:37:00Z,42.805,6.029,13.2979,4.59982,2470.264,2021-1-17T14:38:01Z
2021-01-17T12:40:03Z,42.805,6.029,13.2978,4.59982,2470.24,2021-1-17T14:41:05Z
2021-01-17T12:43:06Z,42.805,6.029,13.2981,4.59981,2470.227,2021-1-17T14:44:08Z
2021-01-17T12:46:09Z,42.805,6.029,13.2977,4.59982,2470.287,2021-1-17T14:47:11Z
2021-01-17T12:49:12Z,42.805,6.029,13.2981,4.59983,2470.203,2021-1-17T14:50:14Z
2021-01-17T12:52:15Z,42.805,6.029,13.2980,4.59982,2470.227,2021-1-17T14:53:17Z
2021-01-17T12:55:19Z,42.805,6.029,13.2981,4.59982,2470.217,2021-1-17T14:56:20Z
2021-01-17T12:58:22Z,42.805,6.029,13.2980,4.59983,2470.227,2021-1-17T14:59:23Z
2021-01-17T13:01:25Z,42.805,6.029,13.2981,4.59985,2470.227,2021-1-17T15:02:26Z
2021-01-17T13:04:28Z,42.805,6.029,13.2979,4.59983,2470.264,2021-1-17T15:05:30Z
2021-01-17T13:07:31Z,42.805,6.029,13.2982,4.59983,2470.24,2021-1-17T15:08:33Z
2021-01-17T13:10:34Z,42.805,6.029,13.2987,4.59983,2470.203,2021-1-17T15:11:36Z
2021-01-17T13:13:37Z,42.805,6.029,13.2979,4.59983,2470.24,2021-1-17T15:14:39Z
2021-01-17T13:16:40Z,42.805,6.029,13.2982,4.59983,2470.189,2021-1-17T15:17:42Z
2021-01-17T13:19:44Z,42.805,6.029,13.2978,4.59983,2470.227,2021-1-17T15:20:45Z
2021-01-17T13:22:47Z,42.805,6.029,13.2978,4.59982,2470.18,2021-1-17T15:23:48Z
2021-01-17T13:25:50Z,42.805,6.029,13.2979,4.59984,2470.203,2021-1-17T15:26:51Z
2021-01-17T13:28:53Z,42.805,6.029,13.2979,4.59983,2470.203,2021-1-17T15:29:55Z
2021-01-17T13:31:56Z,42.805,6.029,13.2979,4.59983,2470.18,2021-1-17T15:32:58Z
2021-01-17T13:34:59Z,42.805,6.029,13.2976,4.59982,2470.24,2021-1-17T15:36:01Z
2021-01-17T13:38:02Z,42.805,6.029,13.2981,4.59982,2470.217,2021-1-17T15:39:04Z
2021-01-17T13:41:06Z,42.805,6.029,13.2979,4.59983,2470.18,2021-1-17T15:42:07Z
2021-01-17T13:44:09Z,42.805,6.029,13.2981,4.59982,2470.217,2021-1-17T15:45:10Z
2021-01-17T13:47:12Z,42.805,6.029,13.2978,4.59984,2470.18,2021-1-17T15:48:13Z
2021-01-17T13:50:15Z,42.805,6.029,13.2985,4.59981,2470.203,2021-1-17T15:51:16Z
2021-01-17T13:53:18Z,42.805,6.029,13.2979,4.59983,2470.217,2021-1-17T15:54:20Z
2021-01-17T13:56:21Z,42.805,6.029,13.2981,4.59983,2470.194,2021-1-17T15:57:23Z
2021-01-17T13:59:24Z,42.805,6.029,13.2979,4.59983,2470.18,2021-1-17T16:00:26Z
2021-01-17T14:02:27Z,42.805,6.029,13.2982,4.59982,2470.18,2021-1-17T16:03:29Z
2021-01-17T14:05:31Z,42.805,6.029,13.2982,4.59984,2470.18,2021-1-17T16:06:32Z
2021-01-17T14:08:34Z,42.805,6.029,13.2979,4.59982,2470.24,2021-1-17T16:09:35Z
2021-01-17T14:11:37Z,42.805,6.029,13.2983,4.59983,2470.194,2021-1-17T16:12:38Z
2021-01-17T14:14:40Z,42.805,6.029,13.2982,4.59983,2470.18,2021-1-17T16:15:41Z
2021-01-17T14:17:43Z,42.805,6.029,13.2978,4.59982,2470.18,2021-1-17T16:18:45Z
2021-01-17T14:20:46Z,42.805,6.029,13.2983,4.59982,2470.203,2021-1-17T16:21:48Z
2021-01-17T14:23:49Z,42.805,6.029,13.2982,4.59983,2470.194,2021-1-17T16:24:51Z
2021-01-17T14:26:52Z,42.805,6.029,13.2976,4.59983,2470.156,2021-1-17T16:27:54Z
2021-01-17T14:29:56Z,42.805,6.029,13.2983,4.59982,2470.194,2021-1-17T16:30:57Z
2021-01-17T14:32:59Z,42.805,6.029,13.2982,4.59982,2470.171,2021-1-17T16:34:00Z
2021-01-17T14:36:02Z,42.805,6.029,13.2982,4.59983,2470.147,2021-1-17T16:37:03Z
2021-01-17T14:39:05Z,42.805,6.029,13.2979,4.59983,2470.18,2021-1-17T16:40:06Z
2021-01-17T14:42:08Z,42.805,6.029,13.2981,4.59983,2470.171,2021-1-17T16:43:10Z
2021-01-17T14:45:11Z,42.805,6.029,13.2979,4.59983,2470.18,2021-1-17T16:46:13Z
2021-01-17T14:48:14Z,42.805,6.029,13.2983,4.59982,2470.156,2021-1-17T16:49:16Z
2021-01-17T14:51:17Z,42.805,6.029,13.2980,4.59982,2470.133,2021-1-17T16:52:19Z
2021-01-17T14:54:21Z,42.805,6.029,13.2983,4.59986,2470.171,2021-1-17T16:55:22Z
2021-01-17T14:57:24Z,42.805,6.029,13.2979,4.59984,2470.147,2021-1-17T16:58:25Z
2021-01-17T15:00:27Z,42.805,6.029,13.2980,4.59982,2470.18,2021-1-17T17:01:28Z
2021-01-17T15:03:30Z,42.805,6.029,13.2982,4.59983,2470.156,2021-1-17T17:04:32Z
2021-01-17T15:06:33Z,42.805,6.029,13.2981,4.59983,2470.18,2021-1-17T17:07:35Z
2021-01-17T15:09:36Z,42.805,6.029,13.2981,4.59983,2470.133,2021-1-17T17:10:38Z
2021-01-17T15:12:39Z,42.805,6.029,13.2982,4.59983,2470.147,2021-1-17T17:13:41Z